938  
SXUS52 KTAE 150018  
OSOTAE  
OSOTAE  
NORTH FLORIDA/SOUTH ALABAMA/SOUTHWEST GEORGIA WEATHER ROUNDUP  
NATIONAL WEATHER SERVICE TALLAHASSEE FLORIDA  
700 PM EST THU DEC 14 2017  
 
NOTE: "FAIR" INDICATES FEW OR NO CLOUDS BELOW 12,000 FEET WITH NO  
SIGNIFICANT WEATHER AND/OR OBSTRUCTIONS TO VISIBILITY.  
 
!FLZ017-115-028-034-025-150100   
..NORTH FLORIDA
 
 
 
CITY SKY/WX TMP DP RH WIND PRES REMARKS  
TALLAHASSEE PTCLDY 55 48 77 S3 30.02R  
APALACHICOLA CLOUDY 60 56 86 S3 30.02R  
PERRY PTCLDY 55 45 67 CALM 30.04R  
CROSS CITY CLOUDY 58 50 73 S3 30.08R  
JACKSONVILLE MOCLDY 54 45 71 S5 30.01R  

 
 
!FLZ112-006-005-002-011-150100   
..FLORIDA PANHANDLE
 
 
 
CITY SKY/WX TMP DP RH WIND PRES REMARKS  
MARIANNA CLOUDY 55 36 48 CALM 29.98S  
BONIFAY NOT AVBL  
PANAMA CITY NW FAIR 52 41 66 CALM 29.99R  
TYNDALL AFB PTCLDY 57 52 82 CALM 30.01S  
TYND DRONE APT FAIR 57 51 82 CALM 30.01S  
DE FUNIAK SPR FAIR 52 41 66 SW3 29.99S  
EGLIN AFB CLOUDY 55 44 68 SW3 29.99R  
DESTIN PTCLDY 64 40 41 W3 29.99S  
HURLBURT MOCLDY 60 35 40 W6 29.98R  
CRESTVIEW CLOUDY 48 41 76 CALM 30.00R  
PENSACOLA PTCLDY 56 39 53 W3 29.99R  

 
 
!ALZ063-066-150100   
..SOUTH ALABAMA
 
 
 
CITY SKY/WX TMP DP RH WIND PRES REMARKS  
DOTHAN PTCLDY 50 41 71 CALM 30.02R  
OZARK CAIRNS PTCLDY 51 38 61 CALM 29.98R  
FT RUCKER HELI MOCLDY 49 43 81 CALM 29.98R  
RUCKER HELI 3 N/A 52 40 64 CALM 29.99R  
RUCKER HELI 2 FAIR 49 45 85 CALM 29.98R  
FLORALA APT PTCLDY 48 43 82 CALM 30.01R  
ANDALUSIA CLOUDY 53 43 68 CALM 29.98R  
TROY CLOUDY 49 42 77 CALM 30.00R  
EUFALA FAIR 50 43 77 CALM 29.98R  
MOBILE CLOUDY 52 44 74 SW5 30.00R  

 
 
!GAZ120>161-150100   
..SOUTHWEST AND SOUTH CENTRAL GEORGIA
 
 
 
CITY SKY/WX TMP DP RH WIND PRES REMARKS  
THOMASVILLE FAIR 52 45 76 CALM 30.01S  
BAINBRIDGE PTCLDY 54 46 76 CALM 30.00R  
MOODY AFB MOCLDY 52 39 62 S5 29.99R  
VALDOSTA PTCLDY 52 40 63 S5 30.01R  
MOULTRIE CLOUDY 52 43 71 CALM 30.01R  
BLAKELY NOT AVBL  
ALBANY PTCLDY 51 41 68 CALM 30.01R  
TIFTON FAIR 49 42 76 CALM 30.00R  
FITZGERALD FAIR 51 42 70 CALM 30.02R  
CORDELE FAIR 54 40 60 CALM 30.00R  
AMERICUS FAIR 48 36 61 CALM 30.00S  
HOMERVILLE FAIR 48 43 81 SW3 30.01R  

 
 
!GMZ750-755-770-775-150100   
..COASTAL AND BUOY OBS
 
 
 
STATION/POSITION TIME TEMP WIND PRES VSBY WAVE  
AIR SEA DIR/SP/G HT/PER  
(UTC) (F) (DEG/KT/KT) (MB) (MI) (FT/S)  
KEATON BEACH 0000 57 80/ 2/ 3 1016.9R  
CEDAR KEY 0000 58 340/ 4/ 5 1017.5R  
C TOWER 0000 63 160/ 3/ 3 1017.1R  
APALACHICOLA BUO NOT AVBL  
PANAMA CITY BUOY 2350 68 74 320/ 2/ 4 1016.2R 2/ 5  
MOBILE BUOY 0000 66 70 310/ 4/ 6 1016.4  
ORANGE BCH AL BU NOT AVBL  

 
 
 
CLICK HERE TO GO TO PREVIOUS BULLETINS.

The Nexlab FL Page
The Nexlab GA Page
The Nexlab AL Page Main Text Page